TimePST,TemperatureF,Dew PointF,Humidity,Sea Level PressureIn,VisibilityMPH,Wind Direction,Wind SpeedMPH,Gust SpeedMPH,PrecipitationIn,Events,Conditions,WindDirDegrees,DateUTC
12:00 AM,51.8,35.6,54,30.11,40.0,SE,18.4,-,N/A,,Scattered Clouds,140,2013-03-02 08:00:00
1:00 AM,50.0,35.6,58,30.11,40.0,East,11.5,-,N/A,,Mostly Cloudy,90,2013-03-02 09:00:00
4:00 AM,48,36,54,30.07,37,East,9.2,,,,Overcast,80,2013-03-02 12:00:00
4:00 AM,48.2,37.4,66,30.07,40.0,ENE,10.4,-,N/A,,Overcast,70,2013-03-02 12:00:00
5:00 AM,46.4,37.4,71,30.06,40.0,ENE,12.7,18.4,N/A,,Mostly Cloudy,70,2013-03-02 13:00:00
6:00 AM,46.4,37.4,71,30.04,40.0,NE,13.8,20.7,N/A,,Mostly Cloudy,50,2013-03-02 14:00:00
7:00 AM,44.6,37.4,76,30.03,40.0,NE,9.2,-,N/A,,Mostly Cloudy,50,2013-03-02 15:00:00
8:00 AM,46.4,37.4,71,30.01,40.0,ENE,12.7,-,N/A,,Mostly Cloudy,60,2013-03-02 16:00:00
9:00 AM,48.2,39.2,71,29.99,40.0,ENE,10.4,18.4,N/A,,Mostly Cloudy,70,2013-03-02 17:00:00
10:00 AM,51,40,55,29.95,37,East,19.6,,,,Partly Cloudy,100,2013-03-02 18:00:00
10:00 AM,50.0,39.2,66,29.95,40.0,ESE,18.4,-,N/A,,Mostly Cloudy,110,2013-03-02 18:00:00
11:00 AM,57.2,37.4,48,29.91,40.0,SE,18.4,-,N/A,,Mostly Cloudy,130,2013-03-02 19:00:00
12:00 PM,55.4,39.2,54,29.89,40.0,ESE,20.7,28.8,N/A,,Mostly Cloudy,110,2013-03-02 20:00:00
1:00 PM,59.0,37.4,45,29.84,40.0,East,11.5,24.2,N/A,,Mostly Cloudy,100,2013-03-02 21:00:00
3:00 PM,62.6,33.8,34,29.78,40.0,NW,12.7,-,N/A,,Mostly Cloudy,310,2013-03-02 23:00:00
4:00 PM,60,34,26,29.77,37,West,11.5,,,,Mostly Cloudy,280,2013-03-03 00:00:00
4:00 PM,59.0,33.8,39,29.77,40.0,West,11.5,18.4,N/A,,Mostly Cloudy,270,2013-03-03 00:00:00
5:00 PM,55.4,35.6,47,29.76,40.0,NW,11.5,-,N/A,,Mostly Cloudy,310,2013-03-03 01:00:00
5:33 PM,-9999,-9999,N/A,-9999,20.0,WNW,34.5,-,N/A,,Low Drifting Widespread Dust,290,2013-03-03 01:33:00
5:57 PM,-9999,-9999,N/A,-9999,20.0,West,21.9,27.6,N/A,Rain,Light Rain Showers,270,2013-03-03 01:57:00
6:00 PM,44.6,39.2,81,29.81,20.0,West,18.4,27.6,N/A,Rain,Light Rain Showers,280,2013-03-03 02:00:00
7:00 PM,44.6,35.6,71,29.86,20.0,NNW,15.0,20.7,N/A,Rain,Light Rain Showers,330,2013-03-03 03:00:00
8:00 PM,42.8,33.8,70,29.90,20.0,NW,16.1,25.3,N/A,,Overcast,310,2013-03-03 04:00:00
9:00 PM,41.0,33.8,76,29.92,20.0,West,9.2,20.7,N/A,Rain,Light Rain Showers,280,2013-03-03 05:00:00
10:00 PM,40,35,75,29.94,19,West,12.7,,,Rain,Light Rain Showers,280,2013-03-03 06:00:00
10:00 PM,39.2,35.6,87,29.94,20.0,WNW,13.8,-,N/A,Rain,Light Rain Showers,290,2013-03-03 06:00:00
10:48 PM,-9999,-9999,N/A,-9999,40.0,West,9.2,-,N/A,,Mostly Cloudy,270,2013-03-03 06:48:00
11:00 PM,41.0,32.0,70,29.95,40.0,West,11.5,-,N/A,,Mostly Cloudy,270,2013-03-03 07:00:00